EW4784 Weather Reports


Display with metric or nautical units.
time (UTC)temp
F
wind
direction
speed
MPH
gust
MPH
rain 1hr
in
rain 24hr
in
rain mn
in
humidity
%
barometer
mb
20260904215629 75 9 3.0 6.0 0.00 0.39 0.39 93 1014.1
20260904215150 75 6 2.0 7.0 0.00 0.39 0.39 94 1014.1
20260904214627 75 5 1.0 3.0 0.00 0.39 0.39 95 1014.2
20260904214147 75 6 4.0 8.0 0.00 0.39 0.39 95 1012.4
20260904213647 74 9 3.0 7.0 0.00 0.39 0.39 95 1014.2
20260904213124 74 335 4.0 9.0 0.00 0.39 0.39 96 1011.6
20260904212624 74 1 1.0 8.0 0.00 0.39 0.39 96 1014.0
20260904212122 74 320 3.0 8.0 0.00 0.39 0.39 96 1013.9
20260904211621 74 337 1.0 4.0 0.00 0.39 0.39 96 1013.7
20260904211120 74 11 1.0 7.0 0.00 0.39 0.39 96 1013.7
20260904210620 74 351 4.0 8.0 0.00 0.39 0.39 96 1013.8
20260904210118 74 312 5.0 13.0 0.00 0.39 0.39 96 1013.8
20260904205617 74 309 3.0 10.0 0.00 0.39 0.39 96 1013.8
20260904205116 74 304 4.0 13.0 0.00 0.39 0.39 96 1013.1
20260904204615 74 314 3.0 10.0 0.00 0.39 0.39 96 1013.7
20260904204114 74 308 4.0 12.0 0.00 0.39 0.39 96 1012.6
20260904203634 74 323 5.0 17.0 0.00 0.39 0.39 97 1013.8
20260904203112 74 308 6.0 12.0 0.00 0.39 0.39 96 1013.8
20260904202611 74 311 6.0 14.0 0.00 0.39 0.39 96 1013.7
20260904202110 74 332 6.0 10.0 0.00 0.39 0.39 96 1013.7
20260904201609 74 354 7.0 11.0 0.00 0.39 0.39 97 1013.7
20260904201108 74 331 4.0 10.0 0.00 0.39 0.39 97 1013.8
20260904200628 74 312 4.0 12.0 0.00 0.39 0.39 96 1013.9
20260904200106 74 345 3.0 7.0 0.00 0.39 0.39 97 1013.1
20260904195605 74 301 2.0 10.0 0.00 0.39 0.39 97 1014.1
20260904195125 74 293 3.0 7.0 0.00 0.39 0.39 97 1014.1
20260904194603 73 287 5.0 14.0 0.00 0.39 0.39 97 1014.2
20260904194124 74 329 4.0 11.0 0.00 0.39 0.39 98 1014.2
20260904193601 73 335 2.0 8.0 0.00 0.39 0.39 98 1014.3
20260904193059 73 328 4.0 8.0 0.00 0.39 0.39 98 1014.3
20260904192620 73 310 4.0 9.0 0.00 0.39 0.39 98 1014.5
20260904192058 73 302 3.0 12.0 0.00 0.39 0.39 98 1014.5
20260904191557 73 327 3.0 12.0 0.00 0.39 0.39 98 1014.5
20260904191117 73 289 2.0 8.0 0.00 0.39 0.39 99 1013.9
20260904190555 72 272 0.0 5.0 0.00 0.39 0.39 99 1014.7
20260904190054 72 214 0.0 0.0 0.00 0.39 0.39 99 1014.8
20260904185553 72 244 1.0 6.0 0.00 0.39 0.39 99 1014.8
20260904185052 72 163 0.0 3.0 0.00 0.39 0.39 99 1014.9
20260904184552 72 304 0.0 3.0 0.00 0.39 0.39 99 1014.9
20260904184049 72 12 0.0 4.0 0.00 0.39 0.39 99 1015.0
20260904183549 72 181 0.0 2.0 0.00 0.39 0.39 99 1015.0
20260904183048 72 271 1.0 6.0 0.00 0.39 0.39 99 1015.1
20260904182547 72 294 1.0 8.0 0.00 0.39 0.39 99 1015.2
20260904182046 72 277 2.0 7.0 0.00 0.39 0.39 99 1015.3
20260904181545 72 302 2.0 8.0 0.00 0.39 0.39 99 1015.3
20260904181044 72 291 2.0 7.0 0.00 0.39 0.39 99 1015.3
20260904180543 72 310 3.0 7.0 0.00 0.39 0.39 99 1015.3
20260904175541 71 313 2.0 11.0 0.00 0.39 0.39 99 1015.4
20260904175040 71 257 0.0 3.0 0.00 0.39 0.39 99 1015.5
20260904174538 71 254 0.0 5.0 0.00 0.39 0.39 99 1015.4
20260904174038 71 179 0.0 3.0 0.00 0.39 0.39 99 1015.4
20260904173538 72 193 2.0 8.0 0.00 0.39 0.39 99 1015.4
20260904173036 71 185 0.0 3.0 0.00 0.39 0.39 100 1015.5
20260904172535 71 270 1.0 8.0 0.00 0.39 0.39 100 1015.7
20260904172033 71 283 0.0 0.0 0.00 0.39 0.39 100 1015.7
20260904171532 71 269 1.0 5.0 0.00 0.39 0.39 100 1015.7
20260904171031 71 255 0.0 0.0 0.00 0.39 0.39 100 1015.8
20260904170530 71 262 0.0 0.0 0.00 0.39 0.39 100 1015.6
20260904170030 71 269 0.0 2.0 0.00 0.39 0.39 100 1015.6
20260904165528 71 274 0.0 0.0 0.01 0.39 0.39 100 1015.5
20260904165048 71 299 0.0 2.0 0.02 0.39 0.39 100 1015.6
20260904164527 70 323 0.0 3.0 0.02 0.39 0.39 100 1015.8
20260904164046 70 319 0.0 1.0 0.03 0.39 0.39 100 1016.0
20260904163525 70 320 1.0 4.0 0.04 0.39 0.39 100 1016.0
20260904163044 70 40 0.0 0.0 0.04 0.39 0.39 100 1015.8
20260904162522 70 39 0.0 0.0 0.04 0.39 0.39 100 1015.7
20260904162042 70 43 0.0 3.0 0.05 0.39 0.39 100 1015.8
20260904161520 69 81 1.0 3.0 0.06 0.39 0.39 100 1015.6
20260904161019 69 176 2.0 9.0 0.06 0.39 0.39 100 1015.6
20260904160539 69 180 1.0 8.0 0.07 0.39 0.39 100 1015.9
20260904160017 69 22 0.0 0.0 0.07 0.39 0.39 100 1016.5
20260904155537 69 20 0.0 0.0 0.06 0.38 0.38 100 1016.8
20260904155015 69 19 0.0 0.0 0.05 0.37 0.37 100 1016.7
20260904154514 69 19 0.0 0.0 0.05 0.37 0.37 100 1016.8
20260904154013 69 19 0.0 0.0 0.04 0.36 0.36 100 1017.0
20260904153512 69 19 0.0 0.0 0.04 0.35 0.35 100 1017.2
20260904153012 69 19 0.0 0.0 0.05 0.35 0.35 100 1017.4
20260904152511 69 18 0.0 3.0 0.05 0.35 0.35 100 1017.5
20260904152031 69 331 1.0 5.0 0.05 0.34 0.34 100 1017.5
20260904151508 69 229 0.0 0.0 0.06 0.33 0.33 100 1017.4
20260904151008 69 262 0.0 1.0 0.07 0.33 0.33 100 1017.4
20260904150506 68 282 0.0 3.0 0.07 0.32 0.32 100 1017.4
20260904150006 68 306 0.0 0.0 0.09 0.32 0.32 100 1017.3
20260904145504 69 318 0.0 2.0 0.10 0.32 0.32 100 1017.3
20260904145004 68 308 0.0 3.0 0.12 0.32 0.32 100 1017.2
20260904144524 68 311 1.0 5.0 0.13 0.32 0.32 100 1017.1
20260904144001 68 224 0.0 3.0 0.13 0.31 0.31 100 1017.0
20260904143500 68 296 0.0 4.0 0.15 0.31 0.31 100 1017.1
20260904143000 68 252 1.0 11.0 0.15 0.30 0.30 100 1017.3
20260904142458 68 281 3.0 12.0 0.15 0.30 0.30 100 1017.5
20260904141958 68 278 3.0 14.0 0.15 0.29 0.29 100 1017.6
20260904141518 68 270 2.0 11.0 0.13 0.27 0.27 100 1017.6
20260904140955 68 273 3.0 10.0 0.13 0.26 0.26 100 1017.6
20260904140454 68 266 1.0 8.0 0.13 0.25 0.25 100 1017.7
20260904135954 68 282 4.0 11.0 0.12 0.23 0.23 100 1017.5
20260904135452 68 324 1.0 7.0 0.11 0.21 0.21 100 1017.4
20260904134951 68 6 0.0 0.0 0.13 0.19 0.19 100 1017.2
20260904134450 68 34 0.0 0.0 0.13 0.17 0.17 100 1017.2
20260904133949 68 34 0.0 3.0 0.15 0.17 0.17 100 1017.4
20260904133448 68 337 1.0 3.0 0.13 0.16 0.16 100 1017.6
20260904132948 68 268 0.0 6.0 0.13 0.15 0.15 100 1017.6
20260904132446 68 197 0.0 1.0 0.13 0.15 0.15 100 1017.4
20260904131946 68 153 0.0 4.0 0.12 0.13 0.13 100 1017.0
20260904131444 68 155 1.0 6.0 0.12 0.12 0.12 100 1016.7
20260904131004 68 178 3.0 10.0 0.11 0.11 0.11 100 1016.5
20260904130443 68 168 2.0 5.0 0.10 0.10 0.10 100 1016.8
20260904125941 68 175 0.0 1.0 0.10 0.10 0.10 100 1017.0
20260904125440 68 223 0.0 1.0 0.09 0.09 0.09 100 1017.1
20260904124939 68 184 0.0 2.0 0.05 0.05 0.05 100 1016.9
20260904124438 68 186 1.0 4.0 0.03 0.03 0.03 100 1016.8
20260904123938 67 243 0.0 3.0 0.02 0.02 0.02 100 1017.1
20260904123437 67 177 0.0 4.0 0.02 0.02 0.02 100 1016.8
20260904122935 67 173 0.0 3.0 0.01 0.01 0.01 100 1016.5
20260904122434 67 179 3.0 6.0 0.01 0.01 0.01 100 1016.4
20260904121933 67 171 0.0 4.0 0.01 0.01 0.01 100 1016.7
20260904121431 67 330 0.0 4.0 0.00 0.00 0.00 100 1016.9
20260904120932 56 220 0.0 4.0 0.00 0.00 0.00 69 1016.7
20260904120451 67 265 0.0 6.0 0.00 0.00 0.00 100 1016.8
20260904115929 67 279 1.0 11.0 0.00 0.00 0.00 100 1016.7
20260904115428 67 192 1.0 6.0 0.00 0.00 0.00 100 1016.7
20260904114927 67 184 0.0 3.0 0.00 0.00 0.00 100 1016.7
20260904114426 67 213 1.0 8.0 0.00 0.00 0.00 100 1016.7
20260904113926 67 189 0.0 0.0 0.00 0.00 0.00 100 1016.8
20260904113445 67 190 1.0 5.0 0.00 0.00 0.00 100 1016.8
20260904112923 67 170 0.0 0.0 0.00 0.00 0.00 100 1016.7
20260904112422 67 176 1.0 8.0 0.00 0.00 0.00 100 1016.7
20260904111942 67 187 1.0 5.0 0.00 0.00 0.00 100 1016.5
20260904111420 67 194 0.0 5.0 0.00 0.00 0.00 100 1016.3
20260904032328 67 0 0.0 0.0 0.00 0.00 0.83 100 1016.1
20260904031827 67 0 0.0 0.0 0.00 0.00 0.83 100 1016.0
20260904031325 67 0 0.0 0.0 0.00 0.00 0.83 100 1015.9
20260904030845 67 0 0.0 0.0 0.00 0.00 0.83 100 1015.9
20260904030323 67 0 0.0 0.0 0.00 0.00 0.83 100 1015.8
20260904025823 67 0 0.0 0.0 0.00 0.00 0.83 100 1015.9
20260904025321 67 0 0.0 0.0 0.00 0.00 0.83 100 1015.9
20260904024820 67 0 0.0 0.0 0.00 0.00 0.83 100 1015.9
20260904024320 67 0 0.0 0.0 0.00 0.00 0.83 100 1015.9
20260904023819 68 0 0.0 0.0 0.00 0.00 0.83 100 1015.8
20260904023318 68 0 0.0 0.0 0.00 0.00 0.83 100 1015.8
20260904022816 68 0 0.0 0.0 0.00 0.00 0.83 100 1015.8
20260904022316 68 0 0.0 0.0 0.00 0.00 0.83 100 1015.5
20260904021815 68 5 0.0 0.0 0.00 0.00 0.83 100 1015.8
20260904021314 68 13 0.0 0.0 0.00 0.00 0.83 100 1015.8
20260904020813 68 13 0.0 0.0 0.00 0.00 0.83 100 1015.9
20260904020312 68 13 0.0 3.0 0.00 0.00 0.83 100 1015.8
20260904015811 68 13 0.0 0.0 0.00 0.00 0.83 100 1015.7
20260904015309 68 13 0.0 0.0 0.00 0.00 0.83 100 1015.8
20260904014808 68 0 0.0 0.0 0.00 0.00 0.83 100 1015.7
20260904014307 68 0 0.0 0.0 0.00 0.00 0.83 100 1015.6
20260904013806 68 312 0.0 1.0 0.00 0.00 0.83 100 1015.5
20260904013306 68 342 0.0 0.0 0.00 0.00 0.83 100 1015.6
20260904012805 68 331 0.0 2.0 0.00 0.00 0.83 100 1015.7
20260904012307 68 324 1.0 6.0 0.00 0.00 0.83 100 1015.7
20260904011803 69 308 1.0 6.0 0.00 0.00 0.83 100 1015.7
20260904011301 69 313 0.0 0.0 0.00 0.00 0.83 100 1015.6
20260904010801 69 321 0.0 3.0 0.00 0.00 0.83 100 1015.5
20260904010259 69 0 0.0 0.0 0.00 0.00 0.83 100 1015.4
20260904005758 69 295 0.0 2.0 0.00 0.00 0.83 100 1015.0
20260904005257 69 267 0.0 4.0 0.00 0.00 0.83 100 1015.3
20260904004756 69 255 0.0 4.0 0.00 0.00 0.83 100 1015.3
20260904004256 69 254 0.0 6.0 0.00 0.00 0.83 100 1015.3
20260904003815 69 295 1.0 6.0 0.00 0.00 0.83 100 1015.2
20260904003254 69 321 0.0 5.0 0.00 0.00 0.83 100 1015.2
20260904002753 69 286 2.0 5.0 0.00 0.00 0.83 99 1015.1
20260904002313 69 317 1.0 5.0 0.00 0.00 0.83 99 1015.0
20260904001751 69 282 0.0 2.0 0.00 0.00 0.83 99 1015.0
20260904001249 69 301 0.0 1.0 0.00 0.00 0.83 99 1015.0
20260904000750 69 301 0.0 3.0 0.00 0.00 0.83 99 1014.9
20260904000310 69 0 0.0 0.0 0.00 0.00 0.83 99 1014.9
20260903235746 69 0 0.0 0.0 0.00 0.00 0.83 99 1013.7
20260903235246 69 272 0.0 3.0 0.00 0.00 0.83 99 1014.9
20260903234744 69 172 0.0 4.0 0.00 0.00 0.83 99 1014.8
20260903234304 69 177 0.0 2.0 0.00 0.00 0.83 99 1014.8
20260903233742 69 176 0.0 0.0 0.00 0.00 0.83 99 1014.8
20260903233302 69 177 0.0 2.0 0.00 0.00 0.83 99 1014.9
20260903232802 69 176 0.0 1.0 0.00 0.00 0.83 99 1015.0
20260903232240 70 182 0.0 2.0 0.00 0.00 0.83 99 1014.9
20260903231738 70 185 0.0 1.0 0.00 0.00 0.83 99 1015.0
20260903231259 70 191 1.0 6.0 0.00 0.00 0.83 99 1015.0
20260903230736 70 228 1.0 11.0 0.00 0.00 0.83 99 1015.1
20260903230257 70 274 2.0 5.0 0.00 0.00 0.83 99 1015.0
20260903225734 70 174 2.0 12.0 0.00 0.00 0.83 99 1014.7
20260903225233 70 187 0.0 2.0 0.00 0.00 0.83 99 1014.6
20260903224753 70 186 0.0 4.0 0.00 0.00 0.83 99 1014.4
20260903224232 70 173 2.0 8.0 0.00 0.00 0.83 99 1014.2
20260903223730 70 190 1.0 8.0 0.00 0.00 0.83 99 1014.3
20260903223250 70 165 2.0 8.0 0.00 0.00 0.83 99 1014.4
20260903222729 70 174 6.0 11.0 0.00 0.00 0.83 98 1014.9